Wheeling, WV

2:21 PM EDT on October 22, 2017 (GMT -0400)
Wheeling-Ohio County

Weather History for KHLG - March, 2014

Change the Weather History Date:

Saturday, March 29, 2014

  Actual Average Record
Temperature  
Mean Temperature 44 °F 45 °F  
Max Temperature 56 °F 55 °F 73 °F (2004)
Min Temperature 31 °F 36 °F 16 °F (2015)
Degree Days  
Heating Degree Days 21 20  
Month to date heating degree days 890 734  
Since 1 July heating degree days 5352 4901  
Cooling Degree Days 0    
Month to date cooling degree days 0  
Year to date cooling degree days 0  
Moisture  
Dew Point 37 °F    
Average Humidity 78    
Maximum Humidity 96    
Minimum Humidity 59    
Precipitation  
Precipitation 0.72 in 0.12 in 0.72 in (2014)
Month to date precipitation 1.90 2.91  
Sea Level Pressure  
Sea Level Pressure 29.89 in    
Wind  
Wind Speed 12 mph (North)    
Max Wind Speed 24 mph    
Max Gust Speed 30 mph    
Visibility 7 miles    
Events Rain , Snow    
T = Trace of Precipitation, MM = Missing Value Source: NWS Daily Summary

Daily Weather History Graph

Daily Weather History Graph

Search for Another Location

Airport or City:

Trip Planner

Search our weather history database for the weather conditions in past years. The results will help you decide how hot, cold, wet, or windy it might be!

Date:

Astronomy

Mar. 29, 2014 Rise Set
Actual Time 7:11 AM EDT 7:43 PM EDT
Civil Twilight 6:44 AM EDT 8:11 PM EDT
Nautical Twilight 6:11 AM EDT 8:43 PM EDT
Astronomical Twilight 5:38 AM EDT 9:16 PM EDT
Moon 6:19 AM EDT (3/29) 6:47 PM EDT (3/29)
Length of Visible Light 13h 27m
Length of Day
12h 32m
Waning Crescent, 2% of the Moon is Illuminated
Mar 29
Waning Crescent
Mar 30
New
Apr 7
First Quarter
Apr 15
Full
Apr 22
Last Quarter

Hourly Weather History & Observations

Time (EDT) Temp. Windchill Dew Point Humidity Pressure Visibility Wind Dir Wind Speed Gust Speed Precip Events Conditions
12:53 AM 37.9 °F 32.1 °F 34.0 °F 86% 30.16 in 10.0 mi NE 8.1 mph - N/A   Clear
1:53 AM 37.9 °F 32.1 °F 34.0 °F 86% 30.14 in 10.0 mi NE 8.1 mph - N/A   Clear
2:24 AM 37.9 °F 29.6 °F 35.1 °F 89% 30.11 in 10.0 mi ENE 13.8 mph - N/A   Mostly Cloudy
2:53 AM 39.0 °F 31.8 °F 35.1 °F 86% 30.13 in 10.0 mi NE 11.5 mph - N/A   Overcast
3:53 AM 39.0 °F 33.4 °F 35.1 °F 86% 30.09 in 10.0 mi NNE 8.1 mph - N/A   Overcast
4:53 AM 37.9 °F 32.7 °F 34.0 °F 86% 30.07 in 10.0 mi NE 6.9 mph - N/A   Overcast
5:53 AM 37.0 °F 31.6 °F 33.1 °F 86% 30.07 in 10.0 mi NNE 6.9 mph - N/A   Mostly Cloudy
6:04 AM 37.0 °F 32.4 °F 33.1 °F 86% 30.05 in 10.0 mi NNE 5.8 mph - N/A   Scattered Clouds
6:17 AM 37.0 °F 32.4 °F 33.1 °F 86% 30.05 in 10.0 mi NNE 5.8 mph - N/A   Mostly Cloudy
6:53 AM 37.0 °F 31.6 °F 33.1 °F 86% 30.06 in 10.0 mi NNE 6.9 mph - N/A   Mostly Cloudy
7:11 AM 37.0 °F 31.0 °F 33.1 °F 86% 30.04 in 10.0 mi NNE 8.1 mph - N/A   Scattered Clouds
7:53 AM 37.0 °F 29.3 °F 33.1 °F 86% 30.04 in 10.0 mi NNE 11.5 mph - N/A   Partly Cloudy
8:53 AM 39.0 °F 34.8 °F 34.0 °F 82% 30.04 in 10.0 mi NE 5.8 mph - N/A   Overcast
9:53 AM 42.1 °F 35.7 °F 35.1 °F 76% 30.00 in 10.0 mi NE 11.5 mph - N/A   Overcast
10:53 AM 46.0 °F 41.0 °F 37.0 °F 71% 29.97 in 10.0 mi ENE 10.4 mph - N/A   Overcast
11:53 AM 50.0 °F - 37.9 °F 63% 29.92 in 10.0 mi NE 10.4 mph - N/A   Partly Cloudy
12:53 PM 54.0 °F - 39.9 °F 59% 29.86 in 10.0 mi NE 12.7 mph 18.4 mph N/A   Overcast
1:53 PM 55.0 °F - 41.0 °F 59% 29.82 in 10.0 mi ENE 8.1 mph - N/A   Overcast
2:53 PM 53.1 °F - 44.1 °F 71% 29.78 in 6.0 mi NNE 8.1 mph - 0.01 in Rain Light Rain
3:53 PM 48.9 °F - 45.0 °F 86% 29.75 in 5.0 mi North 8.1 mph - 0.05 in Rain Light Rain
4:09 PM 48.9 °F - 46.0 °F 90% 29.73 in 4.0 mi NNW 6.9 mph - 0.01 in Rain Light Rain
4:53 PM 46.9 °F - 44.1 °F 90% 29.74 in 4.0 mi NNW 11.5 mph - 0.07 in Rain Light Rain
5:04 PM 46.0 °F 40.2 °F 44.1 °F 93% 29.72 in 3.0 mi NNW 12.7 mph - 0.02 in Rain Rain
5:12 PM 46.0 °F 41.4 °F 44.1 °F 93% 29.72 in 2.5 mi NNW 9.2 mph - 0.04 in Rain Light Rain
5:21 PM 45.0 °F 38.5 °F 43.0 °F 93% 29.71 in 2.0 mi NW 13.8 mph - 0.06 in Rain Rain
5:48 PM 42.8 °F 36.6 °F 39.2 °F 87% 29.72 in 3.0 mi NNW 11.5 mph 23.0 mph 0.13 in Rain Light Rain
5:53 PM 41.0 °F 31.9 °F 39.0 °F 93% 29.75 in 3.0 mi NNW 19.6 mph 25.3 mph 0.14 in Rain Light Rain
6:04 PM 39.9 °F 31.4 °F 37.9 °F 93% 29.73 in 4.0 mi NNW 16.1 mph 24.2 mph 0.02 in Rain Light Rain
6:53 PM 37.9 °F 27.6 °F 36.0 °F 93% 29.75 in 3.0 mi NNW 20.7 mph 27.6 mph 0.11 in Rain Light Rain
7:53 PM 37.9 °F 29.2 °F 36.0 °F 93% 29.75 in 8.0 mi North 15.0 mph 27.6 mph 0.08 in Rain Light Rain
8:53 PM 37.0 °F 28.1 °F 35.1 °F 93% 29.77 in 7.0 mi North 15.0 mph 26.5 mph 0.05 in Rain Light Rain
9:53 PM 36.0 °F 25.3 °F 34.0 °F 93% 29.78 in 6.0 mi NNW 19.6 mph 29.9 mph 0.05 in Rain Light Rain
10:53 PM 34.0 °F 24.6 °F 32.0 °F 92% 29.82 in 7.0 mi NNW 13.8 mph 24.2 mph 0.09 in Rain Light Rain
11:08 PM 33.1 °F 23.9 °F 32.0 °F 96% 29.79 in 2.0 mi NNW 12.7 mph 23.0 mph 0.02 in Snow Light Snow
11:16 PM 33.1 °F 24.4 °F 30.9 °F 92% 29.80 in 1.8 mi NNW 11.5 mph - 0.03 in Snow Light Snow
11:46 PM 32.0 °F 20.8 °F 30.9 °F 96% 29.81 in 1.0 mi NNW 17.3 mph 24.2 mph 0.05 in Snow Light Snow
11:53 PM 32.0 °F 21.2 °F 30.9 °F 96% 29.83 in 1.0 mi NNW 16.1 mph 24.2 mph 0.05 in Snow Light Snow